TimeEDT,TemperatureF,Dew PointF,Humidity,Sea Level PressureIn,VisibilityMPH,Wind Direction,Wind SpeedMPH,Gust SpeedMPH,PrecipitationIn,Events,Conditions,WindDirDegrees,DateUTC
12:56 AM,44.1,39.9,85,30.17,10.0,WSW,3.5,-,N/A,,Clear,250,2013-10-27 04:56:00
1:56 AM,44.1,39.9,85,30.16,10.0,WSW,3.5,-,N/A,,Clear,250,2013-10-27 05:56:00
2:56 AM,44.1,39.9,85,30.14,10.0,West,3.5,-,N/A,,Clear,260,2013-10-27 06:56:00
3:56 AM,45.0,41.0,86,30.12,10.0,WSW,4.6,-,N/A,,Clear,240,2013-10-27 07:56:00
4:56 AM,43.0,39.9,89,30.12,10.0,WSW,3.5,-,N/A,,Clear,250,2013-10-27 08:56:00
5:56 AM,44.1,39.9,85,30.12,10.0,West,3.5,-,N/A,,Clear,260,2013-10-27 09:56:00
6:56 AM,43.0,39.0,86,30.13,10.0,Calm,Calm,-,N/A,,Clear,0,2013-10-27 10:56:00
7:56 AM,42.1,39.0,89,30.14,10.0,Calm,Calm,-,N/A,,Clear,0,2013-10-27 11:56:00
8:56 AM,50.0,43.0,77,30.17,10.0,Calm,Calm,-,N/A,,Clear,0,2013-10-27 12:56:00
9:56 AM,59.0,42.1,53,30.17,10.0,Calm,Calm,-,N/A,,Clear,0,2013-10-27 13:56:00
10:25 AM,62.1,39.9,44,30.17,10.0,NW,6.9,-,N/A,,Partly Cloudy,320,2013-10-27 14:25:00
10:56 AM,64.0,39.0,40,30.17,10.0,NNW,8.1,-,0.00,,Clear,340,2013-10-27 14:56:00
11:56 AM,68.0,41.0,37,30.17,10.0,Variable,4.6,-,N/A,,Clear,0,2013-10-27 15:56:00
12:56 PM,70.0,42.1,36,30.14,10.0,Calm,Calm,-,N/A,,Clear,0,2013-10-27 16:56:00
1:56 PM,73.0,46.0,38,30.11,10.0,WNW,5.8,-,N/A,,Clear,300,2013-10-27 17:56:00
2:56 PM,73.9,46.9,38,30.10,10.0,WNW,6.9,-,N/A,,Clear,300,2013-10-27 18:56:00
3:56 PM,73.9,48.0,40,30.09,10.0,West,5.8,-,N/A,,Clear,260,2013-10-27 19:56:00
4:56 PM,73.9,48.9,41,30.10,10.0,WNW,6.9,-,N/A,,Clear,290,2013-10-27 20:56:00
5:56 PM,71.1,51.1,49,30.10,10.0,WSW,5.8,-,N/A,,Clear,250,2013-10-27 21:56:00
6:56 PM,66.0,53.1,63,30.11,10.0,SSW,3.5,-,N/A,,Clear,200,2013-10-27 22:56:00
7:56 PM,63.0,55.0,75,30.13,10.0,Calm,Calm,-,N/A,,Clear,0,2013-10-27 23:56:00
8:56 PM,61.0,54.0,78,30.14,10.0,Calm,Calm,-,N/A,,Clear,0,2013-10-28 00:56:00
9:56 PM,57.9,52.0,81,30.16,10.0,WSW,5.8,-,N/A,,Clear,240,2013-10-28 01:56:00
10:56 PM,57.9,53.1,84,30.17,10.0,Calm,Calm,-,N/A,,Clear,0,2013-10-28 02:56:00
11:56 PM,55.9,51.1,84,30.17,10.0,SW,3.5,-,N/A,,Clear,230,2013-10-28 03:56:00